Moose Lake, MN

3:37 PM CST on December 12, 2019 (GMT -0600)
Moose Lake-Carlton County

Weather History for KMZH - November, 2019

Change the Weather History Date:

Sunday, November 17, 2019

  Actual Average Record
Temperature  
Mean Temperature 32 °F -  
Max Temperature 33 °F 37 °F 69 °F (2001)
Min Temperature 30 °F 21 °F -8 °F (1959)
Degree Days  
Heating Degree Days 34    
Moisture  
Dew Point 29 °F    
Average Humidity 85    
Maximum Humidity 100    
Minimum Humidity 75    
Precipitation  
Precipitation 0.04 in - - ()
Sea Level Pressure  
Sea Level Pressure 29.83 in    
Wind  
Wind Speed 5 mph ()    
Max Wind Speed 9 mph    
Max Gust Speed -    
Visibility 7.2 miles    
Events Rain , Snow    
Averages and records for this station are not official NWS values.
T = Trace of Precipitation, MM = Missing Value Source: Averaged Metar Reports

Daily Weather History Graph

Daily Weather History Graph

Search for Another Location

Airport or City:

Astronomy

Nov. 17, 2019 Rise Set
Actual Time 7:15 AM CST 4:36 PM CST
Civil Twilight 6:42 AM CST 5:09 PM CST
Nautical Twilight 6:05 AM CST 5:45 PM CST
Astronomical Twilight 5:30 AM CST 6:21 PM CST
Moon 9:09 PM CST (11/17) 12:06 PM CST (11/17)
Length of Visible Light 10h 26m
Length of Day
9h 20m
Waning Gibbous, 73% of the Moon is Illuminated
Nov 17
Waning Gibbous
Nov 19
Last Quarter
Nov 26
New
Dec 4
First Quarter
Dec 11
Full

Hourly Weather History & Observations

Time (CST) Temp. Windchill Dew Point Humidity Pressure Visibility Wind Dir Wind Speed Gust Speed Precip Events Conditions
12:15 AM 33.8 °F 27.0 °F 32.0 °F 93% 29.90 in 3.0 mi SSW 8.1 mph - N/A Rain Light Rain
12:19 AM 33.8 °F 27.7 °F 32.0 °F 93% 29.90 in 3.0 mi SSW 6.9 mph - N/A Rain Light Rain
12:37 AM 33.8 °F 29.6 °F 32.0 °F 93% 29.89 in 2.5 mi South 4.6 mph - 0.01 in Rain Rain
12:55 AM 33.8 °F 27.0 °F 32.0 °F 93% 29.88 in 2.5 mi SSW 8.1 mph - 0.02 in Rain Rain
1:15 AM 33.8 °F 27.7 °F 32.0 °F 93% 29.88 in 2.5 mi SSW 6.9 mph - 0.01 in Rain Light Rain
1:16 AM 33.8 °F 27.0 °F 32.0 °F 93% 29.88 in 2.5 mi SSW 8.1 mph - 0.01 in Rain Light Rain
1:35 AM 33.8 °F 27.7 °F 32.0 °F 93% 29.88 in 2.5 mi SSW 6.9 mph - 0.01 in Rain Light Rain
1:59 AM 33.8 °F 28.6 °F 32.0 °F 93% 29.87 in 2.0 mi South 5.8 mph - N/A Rain Light Rain
2:17 AM 32.0 °F 26.4 °F 32.0 °F 100% 29.87 in 1.8 mi SSW 5.8 mph - N/A Snow Light Snow
2:36 AM 32.0 °F 24.8 °F 32.0 °F 100% 29.86 in 2.0 mi SSW 8.1 mph - N/A Rain Light Rain
2:55 AM 33.8 °F 28.6 °F 32.0 °F 93% 29.86 in 2.0 mi SSW 5.8 mph - 0.01 in   Overcast
2:56 AM 33.8 °F 27.7 °F 32.0 °F 93% 29.86 in 2.0 mi SSW 6.9 mph - N/A   Overcast
3:15 AM 33.8 °F 27.7 °F 32.0 °F 93% 29.85 in 1.8 mi South 6.9 mph - N/A   Overcast
3:38 AM 33.8 °F 28.6 °F 32.0 °F 93% 29.85 in 1.2 mi SSW 5.8 mph - N/A   Overcast
3:55 AM 33.8 °F 27.7 °F 32.0 °F 93% 29.84 in 1.2 mi SSW 6.9 mph - N/A   Overcast
4:15 AM 33.8 °F 30.8 °F 32.0 °F 93% 29.84 in 1.2 mi SW 3.5 mph - N/A   Overcast
4:16 AM 33.8 °F 30.8 °F 32.0 °F 93% 29.84 in 1.2 mi SW 3.5 mph - N/A   Overcast
4:35 AM 33.8 °F 28.6 °F 32.0 °F 93% 29.84 in 1.2 mi SSW 5.8 mph - N/A   Overcast
4:36 AM 33.8 °F 28.6 °F 32.0 °F 93% 29.84 in 1.2 mi SSW 5.8 mph - N/A   Overcast
4:58 AM 33.8 °F 27.7 °F 32.0 °F 93% 29.84 in 1.5 mi SSW 6.9 mph - N/A   Overcast
5:16 AM 33.8 °F 29.6 °F 32.0 °F 93% 29.83 in 1.2 mi SSW 4.6 mph - N/A   Overcast
5:36 AM 33.8 °F 29.6 °F 32.0 °F 93% 29.83 in 1.0 mi SW 4.6 mph - N/A   Overcast
5:55 AM 33.8 °F 28.6 °F 32.0 °F 93% 29.82 in 1.0 mi SSW 5.8 mph - N/A   Overcast
5:56 AM 33.8 °F 28.6 °F 32.0 °F 93% 29.82 in 1.0 mi SSW 5.8 mph - N/A   Overcast
6:15 AM 33.8 °F 30.8 °F 32.0 °F 93% 29.82 in 1.2 mi SW 3.5 mph - N/A   Light Drizzle
6:19 AM 33.8 °F 29.6 °F 32.0 °F 93% 29.82 in 1.0 mi SSW 4.6 mph - N/A   Light Drizzle
6:55 AM 33.8 °F 30.8 °F 32.0 °F 93% 29.82 in 1.2 mi SW 3.5 mph - N/A   Light Drizzle
7:15 AM 33.8 °F 30.8 °F 32.0 °F 93% 29.82 in 1.5 mi SSW 3.5 mph - N/A   Overcast
7:16 AM 33.8 °F 29.6 °F 32.0 °F 93% 29.82 in 1.5 mi SSW 4.6 mph - N/A   Overcast
7:35 AM 33.8 °F - 32.0 °F 93% 29.82 in 1.2 mi Calm Calm - N/A   Overcast
7:36 AM 33.8 °F - 32.0 °F 93% 29.82 in 1.2 mi Calm Calm - N/A   Overcast
7:58 AM 33.8 °F - 32.0 °F 93% 29.83 in 1.5 mi Calm Calm - N/A   Overcast
8:17 AM 33.8 °F 27.0 °F 32.0 °F 93% 29.84 in 2.5 mi WNW 8.1 mph - N/A   Overcast
8:36 AM 33.8 °F 27.7 °F 32.0 °F 93% 29.84 in 10.0 mi NW 6.9 mph - N/A   Overcast
8:55 AM 33.8 °F 27.0 °F 32.0 °F 93% 29.84 in 10.0 mi NW 8.1 mph - N/A   Overcast
9:15 AM 33.8 °F 27.7 °F 32.0 °F 93% 29.84 in 10.0 mi NW 6.9 mph - N/A   Overcast
9:19 AM 33.8 °F 27.0 °F 32.0 °F 93% 29.84 in 10.0 mi NW 8.1 mph - N/A   Overcast
9:37 AM 33.8 °F 29.6 °F 32.0 °F 93% 29.84 in 10.0 mi WNW 4.6 mph - N/A   Overcast
9:56 AM 33.8 °F 27.7 °F 32.0 °F 93% 29.84 in 10.0 mi WNW 6.9 mph - N/A   Overcast
10:15 AM 33.8 °F 27.7 °F 32.0 °F 93% 29.84 in 10.0 mi WNW 6.9 mph - N/A   Overcast
10:16 AM 33.8 °F 28.6 °F 32.0 °F 93% 29.84 in 10.0 mi WNW 5.8 mph - N/A   Overcast
10:35 AM 33.8 °F 28.6 °F 32.0 °F 93% 29.84 in 10.0 mi NW 5.8 mph - N/A   Overcast
10:36 AM 33.8 °F 29.6 °F 32.0 °F 93% 29.84 in 10.0 mi WNW 4.6 mph - N/A   Overcast
10:59 AM 33.8 °F 28.6 °F 30.2 °F 87% 29.84 in 10.0 mi West 5.8 mph - N/A   Overcast
11:16 AM 33.8 °F 27.0 °F 30.2 °F 87% 29.84 in 10.0 mi NW 8.1 mph - N/A   Overcast
11:35 AM 33.8 °F 28.6 °F 30.2 °F 87% 29.84 in 10.0 mi NW 5.8 mph - N/A   Overcast
11:55 AM 33.8 °F 26.4 °F 28.4 °F 81% 29.83 in 10.0 mi NNW 9.2 mph - N/A   Overcast
11:56 AM 33.8 °F 27.0 °F 28.4 °F 81% 29.83 in 10.0 mi NW 8.1 mph - N/A   Overcast
12:15 PM 33.8 °F 27.0 °F 28.4 °F 81% 29.83 in 10.0 mi NW 8.1 mph - N/A   Overcast
12:19 PM 33.8 °F 28.6 °F 28.4 °F 81% 29.83 in 10.0 mi NW 5.8 mph - N/A   Overcast
12:38 PM 33.8 °F 29.6 °F 28.4 °F 81% 29.83 in 10.0 mi NNW 4.6 mph - N/A   Overcast
12:55 PM 33.8 °F 27.7 °F 28.4 °F 81% 29.83 in 10.0 mi NW 6.9 mph - N/A   Overcast
1:15 PM 33.8 °F 27.0 °F 28.4 °F 81% 29.83 in 10.0 mi WNW 8.1 mph - N/A   Overcast
1:35 PM 33.8 °F 29.6 °F 26.6 °F 75% 29.82 in 10.0 mi WNW 4.6 mph - N/A   Overcast
1:36 PM 33.8 °F 28.6 °F 26.6 °F 75% 29.82 in 10.0 mi West 5.8 mph - N/A   Overcast
1:58 PM 33.8 °F 27.0 °F 26.6 °F 75% 29.82 in 10.0 mi WNW 8.1 mph - N/A   Overcast
2:17 PM 32.0 °F 24.8 °F 26.6 °F 80% 29.82 in 10.0 mi NW 8.1 mph - N/A   Overcast
2:36 PM 32.0 °F 24.2 °F 26.6 °F 80% 29.82 in 10.0 mi NW 9.2 mph - N/A   Overcast
2:55 PM 32.0 °F 26.4 °F 26.6 °F 80% 29.82 in 10.0 mi NW 5.8 mph - N/A   Overcast
2:56 PM 32.0 °F 24.8 °F 26.6 °F 80% 29.82 in 10.0 mi NW 8.1 mph - N/A   Overcast
3:15 PM 32.0 °F 25.6 °F 26.6 °F 80% 29.82 in 10.0 mi West 6.9 mph - N/A   Overcast
3:20 PM 32.0 °F 25.6 °F 26.6 °F 80% 29.82 in 10.0 mi WNW 6.9 mph - N/A   Overcast
3:37 PM 32.0 °F 24.2 °F 24.8 °F 75% 29.83 in 10.0 mi West 9.2 mph - N/A   Overcast
3:56 PM 32.0 °F 26.4 °F 24.8 °F 75% 29.84 in 10.0 mi NW 5.8 mph - N/A   Overcast
4:15 PM 32.0 °F 26.4 °F 24.8 °F 75% 29.84 in 10.0 mi NW 5.8 mph - N/A   Overcast
4:16 PM 32.0 °F 25.6 °F 24.8 °F 75% 29.84 in 10.0 mi NW 6.9 mph - N/A   Overcast
4:35 PM 32.0 °F 24.8 °F 24.8 °F 75% 29.85 in 10.0 mi NW 8.1 mph - N/A   Overcast
4:36 PM 32.0 °F 24.2 °F 24.8 °F 75% 29.85 in 10.0 mi NW 9.2 mph - N/A   Overcast
4:59 PM 32.0 °F 25.6 °F 24.8 °F 75% 29.84 in 10.0 mi NW 6.9 mph - N/A   Overcast
5:16 PM 32.0 °F 28.7 °F 24.8 °F 75% 29.84 in 10.0 mi WNW 3.5 mph - N/A   Overcast
5:35 PM 32.0 °F 28.7 °F 24.8 °F 75% 29.84 in 10.0 mi NW 3.5 mph - N/A   Overcast
5:55 PM 32.0 °F 26.4 °F 24.8 °F 75% 29.83 in 10.0 mi WNW 5.8 mph - N/A   Overcast
5:56 PM 32.0 °F 27.5 °F 24.8 °F 75% 29.83 in 10.0 mi WNW 4.6 mph - N/A   Overcast
6:15 PM 32.0 °F 28.7 °F 24.8 °F 75% 29.83 in 10.0 mi WNW 3.5 mph - N/A   Overcast
6:19 PM 32.0 °F - 24.8 °F 75% 29.83 in 10.0 mi Calm Calm - N/A   Overcast
6:38 PM 32.0 °F 28.7 °F 24.8 °F 75% 29.82 in 10.0 mi WNW 3.5 mph - N/A   Overcast
6:55 PM 32.0 °F 28.7 °F 24.8 °F 75% 29.82 in 10.0 mi WNW 3.5 mph - N/A   Overcast
7:15 PM 32.0 °F - 24.8 °F 75% 29.82 in 10.0 mi Calm Calm - N/A   Overcast
7:16 PM 32.0 °F 28.7 °F 24.8 °F 75% 29.82 in 10.0 mi West 3.5 mph - N/A   Overcast
7:35 PM 32.0 °F 28.7 °F 24.8 °F 75% 29.81 in 10.0 mi West 3.5 mph - N/A   Overcast
7:36 PM 30.2 °F - 24.8 °F 80% 29.81 in 10.0 mi Calm Calm - N/A   Overcast
7:58 PM 30.2 °F 26.7 °F 24.8 °F 80% 29.81 in 10.0 mi West 3.5 mph - N/A   Overcast
8:17 PM 30.2 °F 26.7 °F 24.8 °F 80% 29.81 in 10.0 mi West 3.5 mph - N/A   Overcast
8:36 PM 30.2 °F 26.7 °F 24.8 °F 80% 29.82 in 10.0 mi West 3.5 mph - N/A   Overcast
8:55 PM 30.2 °F 26.7 °F 24.8 °F 80% 29.82 in 10.0 mi West 3.5 mph - N/A   Overcast
8:56 PM 30.2 °F 25.4 °F 24.8 °F 80% 29.82 in 10.0 mi West 4.6 mph - N/A   Overcast
9:15 PM 30.2 °F 25.4 °F 24.8 °F 80% 29.82 in 10.0 mi WNW 4.6 mph - N/A   Overcast
9:19 PM 30.2 °F 25.4 °F 24.8 °F 80% 29.82 in 10.0 mi West 4.6 mph - N/A   Overcast
9:37 PM 30.2 °F 25.4 °F 24.8 °F 80% 29.81 in 10.0 mi WNW 4.6 mph - N/A   Overcast
9:55 PM 30.2 °F 24.3 °F 24.8 °F 80% 29.81 in 10.0 mi WNW 5.8 mph - N/A   Overcast
10:15 PM 30.2 °F 25.4 °F 24.8 °F 80% 29.81 in 10.0 mi WNW 4.6 mph - N/A   Overcast
10:16 PM 30.2 °F 25.4 °F 24.8 °F 80% 29.81 in 10.0 mi WNW 4.6 mph - N/A   Overcast
10:35 PM 30.2 °F - 24.8 °F 80% 29.81 in 10.0 mi Calm Calm - N/A   Overcast
10:36 PM 30.2 °F - 24.8 °F 80% 29.81 in 10.0 mi Calm Calm - N/A   Overcast
10:58 PM 30.2 °F - 24.8 °F 80% 29.80 in 10.0 mi Calm Calm - N/A   Overcast
11:16 PM 30.2 °F 26.7 °F 24.8 °F 80% 29.80 in 10.0 mi West 3.5 mph - N/A   Overcast
11:36 PM 30.2 °F - 24.8 °F 80% 29.79 in 10.0 mi Calm Calm - N/A   Overcast
11:55 PM 30.2 °F - 24.8 °F 80% 29.79 in 10.0 mi Calm Calm - N/A   Overcast
11:56 PM 30.2 °F - 24.8 °F 80% 29.79 in 10.0 mi Calm Calm - N/A   Overcast